Overview Statistics Trail Chart Weather Telemetry Raw packets
 

This is the latest recevied weather packets stored in our database for station/object KF0WJA. If no packets are shown the sender has not sent any weather packets the latest 10 day(s).

<< 103 104 105 106 107 108 109 >>
Time Temp. Humidity Pressure Rain* Wind** Luminosity Snow
1787882493 22.78° C 61% 1020.1 hPa 0 mm - 0 W/m² -
1787882189 23.33° C 61% 1020 hPa 0 mm - 0 W/m² -
1787881583 23.33° C 59% 1020 hPa 0 mm - 0 W/m² -
1787881280 23.89° C 58% 1019.8 hPa 0 mm - 0 W/m² -
1787880974 23.89° C 57% 1019.7 hPa 0 mm - 0 W/m² -
1787880674 24.44° C 56% 1019.9 hPa 0 mm - 0 W/m² -
1787880372 24.44° C 55% 1019.9 hPa 0 mm - 0 W/m² -
1787880068 25° C 54% 1019.7 hPa 0 mm - 0 W/m² -
1787879763 25.56° C 53% 1019.5 hPa 0 mm - 0 W/m² -
1787879458 25.56° C 51% 1019.6 hPa 0 mm - 0 W/m² -
1787879153 26.67° C 50% 1019.4 hPa 0 mm - 2 W/m² -
1787878850 26.67° C 49% 1019.2 hPa 0 mm - 4 W/m² -
1787878549 27.22° C 48% 1019.4 hPa 0 mm - 6 W/m² -
1787878244 27.78° C 47% 1019.5 hPa 0 mm - 10 W/m² -
1787877940 28.33° C 47% 1019.3 hPa 0 mm - 15 W/m² -
1787877636 28.33° C 46% 1019.3 hPa 0 mm - 19 W/m² -
1787877331 28.89° C 47% 1019.3 hPa 0 mm - 24 W/m² -
1787877026 28.89° C 46% 1019.4 hPa 0 mm - 32 W/m² -
1787876721 29.44° C 46% 1019.3 hPa 0 mm - 39 W/m² -
1787876416 30° C 44% 1019.2 hPa 0 mm - 49 W/m² -
1787876115 30° C 44% 1019.4 hPa 0 mm - 58 W/m² -
1787875810 30.56° C 43% 1019.3 hPa 0 mm - 69 W/m² -
1787875509 30.56° C 43% 1019.2 hPa 0 mm - 79 W/m² -
1787875212 31.11° C 43% 1019.2 hPa 0 mm - 92 W/m² -
1787874907 31.11° C 39% 1019.3 hPa 0 mm - 109 W/m² -

* Rain latest hour (hover to see other rain measurements)
** Current wind speed in m/s (hover to see current wind gust speed)